Location: Asbacherhof
(48.8543°N, 10.7903°E)
Time: 22:27:01
(UTC+00:00)

Cosmos 2369 Rocket - Pass Details

Date: 26 May 2022
Orbit: 830 x 851 km, 71.0° (Epoch: 29 June)

Event Time Altitude Azimuth Distance (km) Brightness Sun altitude
Rises 01:50:16 0° 331° (NNW) 3,387 5.7 -11.8°
Reaches altitude 10° 01:52:43 10° 331° (NNW) 2,448 4.9 -11.6°
Maximum altitude 01:58:20 86° 244° (WSW) 839 2.2 -11.0°
Drops below altitude 10° 02:03:55 10° 156° (SSE) 2,432 4.3 -10.4°
Sets 02:06:21 0° 156° (SSE) 3,363 5.1 -10.2°
